Temp
19 19 19 19 19 19 19 19 19 19 19 19 18 18 18 18 18 18 18 18 17 17 16 17 16 16 16 16 16 15 15 15 15 15 15 15 15 14 14 14 14 14 14 14 13 13 13 14 14 13 13 13 14 14 14 14 14 14 14 14 15 15 14 15 15 15 16 16 16 16 16 16 16 16 16 17 17 16 16 16 16 16 16 17 17
18 18 19 18 18 19 19 19 18 18 18 18 18 17 17 17 17 18 18 18 17 17 17 17 17 16 16 16 16 16 15 15 15 15 15 15 14 14 14 14 14 14 14 14 13 13 13 13 13 13 13 12 13 13 14 14 14 15 15 15 15 15 14 15 15 15 15 15 15 15 16 16 16 16 16 16 16 16 16 16 16 17 17 17 17
17 17 17 17 18 18 18 18 18 18 18 18 18 17 17 17 16 17 18 18 18 17 17 17 17 17 17 16 16 16 16 16 15 15 15 15 14 14 14 14 14 14 13 14 14 13 13 13 13 13 12 12 12 13 13 14 14 14 15 14 14 14 14 14 14 14 14 14 14 15 15 15 15 15 15 16 16 16 16 16 16 17 17 17 18
17 17 16 16 17 18 18 18 18 18 18 18 18 17 17 17 17 17 17 17 18 18 18 17 17 17 17 17 17 16 16 16 15 15 15 15 14 14 14 14 14 13 13 14 14 13 13 13 13 13 12 12 12 13 13 13 13 14 14 14 14 14 14 14 13 14 14 14 14 14 15 15 15 15 15 15 16 16 16 16 16 16 17 17 18
16 16 16 16 16 17 17 17 17 16 16 17 17 17 16 16 17 16 16 17 17 17 18 18 18 17 17 17 17 17 16 16 16 15 15 15 14 14 14 14 13 13 13 13 13 13 13 13 13 12 12 12 12 12 13 13 13 13 13 13 14 14 14 14 13 13 13 14 14 14 14 14 14 15 15 15 16 16 16 16 16 16 16 17 17
16 16 16 16 16 16 16 16 16 16 16 16 16 16 16 16 17 16 16 17 17 17 17 18 18 18 17 17 17 17 17 16 16 15 15 15 14 14 14 13 13 13 13 13 12 12 12 12 12 12 12 12 12 12 12 12 12 12 12 12 12 13 13 13 13 13 13 13 14 14 14 14 14 14 15 15 15 15 16 16 16 16 16 16 16
15 15 15 15 16 16 16 16 16 16 15 15 15 15 15 15 16 16 16 16 16 16 17 17 18 18 18 18 18 17 17 17 16 15 15 15 14 14 13 13 13 13 12 12 12 12 12 12 12 11 11 11 11 11 11 11 11 11 11 11 11 12 12 12 12 13 13 13 13 14 14 14 14 14 15 15 15 15 15 15 16 16 16 16 16
15 15 15 14 14 14 15 15 15 15 15 15 16 16 15 15 16 16 16 16 16 16 16 17 18 18 18 18 18 17 17 17 16 16 15 14 14 13 13 13 13 12 12 12 12 11 11 11 11 11 11 10 10 10 10 10 10 10 10 11 11 11 11 11 12 12 13 13 13 14 14 14 14 14 15 15 15 15 15 15 15 15 15 15 15
16 16 15 15 14 14 14 14 15 15 15 16 16 16 16 16 16 15 15 15 15 16 16 17 17 17 17 18 18 17 17 17 16 16 15 14 14 13 13 12 12 12 12 11 11 11 11 11 10 10 10 10 9 9 9 9 9 8 9 9 10 10 10 11 11 12 12 13 13 13 14 14 14 14 14 14 15 15 15 14 14 14 14 14 14
16 16 16 16 16 15 15 15 15 15 16 16 16 16 17 17 17 16 15 15 15 16 16 17 17 16 16 16 17 17 17 16 16 15 14 14 13 13 13 12 12 12 12 11 11 11 11 11 10 10 9 9 9 8 8 8 8 8 8 8 8 8 9 9 10 11 11 12 12 13 13 13 14 14 14 14 14 13 13 13 13 13 13 14 14
16 16 16 16 16 16 17 16 16 16 17 17 17 17 17 17 17 17 16 16 16 16 16 16 16 15 15 15 16 16 16 15 15 15 14 13 13 13 12 12 12 12 12 11 11 11 11 10 10 9 9 8 8 8 8 8 7 7 7 7 7 7 7 7 8 9 10 10 11 12 12 12 13 13 13 13 13 13 13 13 13 13 13 13 14
16 16 16 16 16 17 17 17 17 17 17 17 17 17 17 17 17 17 17 16 16 16 15 15 16 15 15 14 15 15 14 14 14 14 13 13 12 12 12 12 11 11 11 11 11 11 11 10 10 9 9 9 8 8 8 8 7 7 7 6 6 6 6 6 6 7 8 8 9 10 10 11 11 12 12 12 12 12 12 12 12 12 12 12 13
16 16 16 16 16 17 17 17 17 17 17 17 17 17 17 17 17 17 17 17 16 15 15 15 15 15 14 14 14 14 13 13 13 13 12 12 12 12 12 11 11 11 11 11 11 11 11 10 10 10 9 9 8 8 8 8 8 7 7 6 6 6 6 6 6 6 6 6 7 8 8 9 10 10 10 10 10 10 11 11 11 11 12 12 12
16 16 16 16 16 16 16 16 17 17 17 17 17 17 17 17 17 16 16 16 16 15 15 15 15 14 14 14 14 13 12 11 12 12 12 11 11 11 12 11 11 11 11 10 10 10 10 10 10 10 9 9 9 8 8 8 8 7 7 7 6 6 6 6 6 6 6 5 6 6 7 7 7 8 8 8 8 8 9 9 10 10 10 11 11
16 16 16 16 16 16 16 16 16 16 16 16 16 16 16 16 16 16 16 16 16 16 15 14 14 14 14 13 13 12 11 11 11 11 11 11 10 11 11 10 10 10 10 10 10 9 9 9 9 9 9 9 9 8 8 7 7 7 6 6 6 7 7 7 6 6 6 6 5 5 6 6 6 7 7 6 6 6 6 6 7 8 9 9 10
16 16 15 15 16 16 16 15 15 15 16 16 16 16 16 16 16 16 16 16 16 16 15 15 14 14 14 13 12 11 10 10 10 10 10 10 9 10 10 10 9 10 10 9 9 9 9 9 9 9 9 9 8 8 7 7 6 6 6 6 6 6 6 7 7 6 6 6 6 6 6 6 6 6 6 5 5 5 5 5 5 6 7 8 9
16 16 15 15 16 15 15 15 15 15 15 15 16 16 16 16 16 16 16 15 15 15 15 15 14 14 14 13 12 10 10 10 9 9 9 9 9 9 9 9 9 9 9 9 9 9 9 9 9 9 9 8 8 7 7 6 5 5 5 5 6 6 6 6 6 6 6 6 6 6 6 6 6 5 5 5 5 4 4 4 5 6 7 8 9
15 15 15 15 15 15 15 15 15 15 15 15 15 15 15 16 16 16 15 15 15 15 14 14 14 13 13 12 11 10 9 9 9 9 9 9 9 9 9 10 10 10 10 10 10 10 10 9 9 8 8 8 7 7 6 6 5 5 5 5 5 5 6 6 6 6 6 6 6 6 6 5 5 5 5 5 4 4 4 4 5 6 6 7 8
15 15 15 15 15 15 14 14 14 14 14 14 15 15 15 15 15 15 15 15 15 14 14 14 13 12 11 11 10 9 9 8 8 8 8 8 8 9 9 10 10 10 10 10 10 10 10 9 9 8 8 8 7 6 6 5 4 4 4 4 5 5 5 5 5 5 5 5 5 5 5 5 5 5 5 4 4 4 4 4 4 5 6 6 7
14 14 14 15 15 14 14 14 14 14 14 14 14 14 14 15 15 15 15 15 15 14 14 13 12 10 10 9 9 9 9 8 8 8 8 7 8 8 8 9 9 9 9 9 10 9 9 9 9 8 8 7 6 5 5 4 3 3 3 3 4 4 4 4 3 3 3 3 3 3 4 4 4 4 4 4 4 4 4 4 4 5 5 6 6
14 14 14 14 14 14 14 14 14 13 13 13 13 13 14 14 14 14 14 14 14 13 12 11 10 9 9 8 8 8 9 8 8 8 7 7 7 7 7 7 8 8 8 8 9 9 9 9 8 7 6 6 5 4 3 3 2 1 1 2 2 2 2 2 1 1 2 2 2 2 2 3 3 3 4 4 4 4 4 4 4 4 4 5 6
14 14 14 14 14 14 14 14 13 13 13 13 13 13 13 13 14 14 14 13 13 11 10 9 8 8 8 8 8 8 8 8 8 7 7 7 7 6 6 6 6 7 7 7 8 8 9 9 8 6 5 5 4 3 3 2 2 1 1 1 1 1 0 0 0 1 1 1 1 1 2 2 2 3 3 4 4 5 5 5 4 4 4 4 5
13 14 14 14 14 14 14 13 13 13 12 12 12 12 12 13 13 13 13 12 11 10 8 8 8 7 7 7 7 7 7 7 7 7 6 6 6 6 6 6 5 6 6 6 7 7 8 8 7 6 5 4 4 3 3 2 1 1 1 1 1 0 -0 -0 0 0 0 1 1 1 1 2 2 3 3 4 4 5 5 5 5 5 4 4 4
13 13 13 13 13 13 13 13 13 13 12 12 12 12 12 12 12 12 11 10 9 9 8 7 7 7 7 7 7 6 6 7 7 6 6 6 6 6 6 5 5 5 5 5 6 6 6 6 6 5 4 4 3 2 2 1 1 1 1 1 1 1 0 0 0 0 0 1 1 1 1 2 2 2 3 3 4 4 4 4 4 4 4 4 4
13 13 13 13 13 13 13 13 13 13 12 12 12 12 11 11 11 10 10 9 8 8 8 7 7 7 7 7 7 7 6 6 7 7 6 6 6 6 6 5 5 5 5 5 5 5 5 4 4 3 2 2 2 2 2 2 2 2 2 2 1 1 1 1 1 1 1 1 1 1 2 2 2 2 2 3 3 3 3 3 4 4 4 4 4
13 13 13 13 13 13 13 13 13 13 13 12 11 11 10 9 9 9 9 8 8 8 8 8 8 7 7 8 8 7 7 7 7 7 6 6 6 6 6 6 5 5 5 5 5 5 4 3 2 2 2 2 2 2 2 2 2 2 2 2 2 1 2 2 2 2 2 2 2 2 2 2 2 2 2 2 2 3 3 3 3 3 3 3 3
13 13 13 13 13 13 13 12 12 12 12 11 10 9 9 8 8 8 8 8 8 8 8 8 8 8 8 8 8 8 8 7 7 7 6 6 6 6 6 6 6 5 5 5 5 4 3 2 2 3 3 3 3 3 3 2 2 2 2 2 2 2 2 2 2 2 2 2 2 2 2 2 2 2 2 2 2 2 2 2 2 3 3 3 3
13 13 13 12 12 12 12 12 11 11 11 9 9 8 8 8 8 7 7 8 8 8 7 7 8 8 8 9 8 8 8 8 7 6 6 6 5 5 6 5 5 5 4 4 3 3 2 2 3 4 4 4 3 3 3 3 3 3 3 3 3 3 3 2 2 2 2 2 2 2 2 2 2 2 2 2 2 2 2 2 2 2 2 2 2
12 12 12 12 11 11 11 11 11 10 9 8 7 7 7 7 7 7 7 7 7 7 7 8 8 7 7 8 8 8 7 6 6 6 6 5 5 4 4 4 4 3 3 2 2 1 1 3 4 5 5 4 4 3 3 3 3 3 2 2 2 2 2 2 2 2 2 2 2 2 1 1 1 1 2 2 2 2 2 2 2 2 2 2 1
12 11 11 11 11 11 11 10 10 9 7 6 5 6 6 6 6 6 6 7 7 7 7 7 7 7 7 7 7 7 6 6 6 6 5 4 4 4 3 3 2 2 2 2 1 1 2 4 5 5 4 4 3 3 3 3 2 2 2 2 2 2 1 1 1 1 1 1 1 1 0 0 0 0 1 1 1 1 1 1 1 1 1 1 1
11 11 11 11 11 11 10 9 8 7 6 5 5 5 5 5 5 6 6 7 7 7 7 7 7 7 7 6 6 6 6 6 5 5 4 4 4 3 3 2 2 2 2 1 1 2 4 5 5 4 4 3 3 2 2 2 2 2 1 1 1 1 1 1 1 1 1 0 0 0 -0 -0 -0 -0 -0 -0 0 0 1 1 1 0 0 0 0
11 11 11 11 10 10 9 8 7 6 5 5 4 4 4 4 4 5 6 7 7 7 7 7 7 6 6 6 6 6 5 5 5 4 4 4 3 3 3 2 2 2 2 1 1 3 4 4 4 3 3 2 2 2 2 1 1 1 1 1 1 1 1 1 1 0 0 -0 -0 -0 -1 -1 -1 -1 -1 -0 -0 -0 -0 0 0 0 0 0 0
10 10 10 9 9 8 8 7 6 5 5 5 5 5 5 5 4 4 5 6 6 6 6 6 6 6 6 6 5 5 5 4 4 4 3 3 3 3 3 3 2 2 1 1 2 4 4 3 3 3 2 2 2 1 1 1 1 1 1 1 1 0 0 0 -0 -0 -0 -1 -1 -1 -1 -1 -1 -1 -1 -1 -1 -1 -0 -0 0 0 0 0 0
10 10 9 8 7 7 6 5 5 5 5 5 5 5 5 5 5 4 4 4 4 5 5 5 5 5 5 5 4 4 4 4 4 3 3 3 3 3 3 3 3 2 2 2 3 4 4 3 3 2 2 2 2 1 1 1 1 1 0 0 -0 -0 -0 -0 -1 -1 -1 -1 -1 -1 -1 -1 -1 -1 -1 -1 -1 -1 -0 -0 0 0 0 0 0
9 8 8 7 6 6 5 5 5 5 5 5 5 5 5 5 5 5 4 4 4 3 3 4 4 4 4 4 4 4 4 4 3 3 3 3 4 3 3 3 4 4 3 3 4 4 3 2 2 2 2 1 1 1 1 1 0 -0 -0 -0 -1 -1 -1 -1 -1 -1 -1 -1 -1 -1 -1 -1 -1 -1 -1 -1 -1 -1 -0 0 0 0 0 0 0
7 7 6 6 5 5 5 5 5 5 5 5 5 5 4 5 5 5 5 5 4 4 4 3 3 4 4 4 4 4 4 4 4 4 4 4 4 3 3 5 6 5 4 4 4 3 2 2 2 1 1 1 1 1 0 -0 -0 -0 -1 -1 -1 -1 -1 -1 -1 -1 -2 -2 -2 -2 -1 -1 -1 -1 -1 -1 -1 -1 -1 -0 -0 0 0 0 0
5 5 5 5 5 4 5 5 5 5 5 5 5 5 5 6 6 6 6 6 5 5 5 4 3 3 3 3 4 4 4 4 4 4 4 4 3 3 4 6 6 5 4 4 4 3 2 2 1 1 1 1 0 0 -0 -1 -1 -1 -1 -1 -1 -1 -1 -1 -2 -2 -2 -2 -2 -2 -2 -2 -1 -1 -1 -1 -1 -1 -1 -1 -1 -0 -0 -0 0
4 4 4 4 4 4 4 5 5 5 6 6 6 6 6 7 7 7 7 6 6 6 6 5 5 5 5 4 4 5 4 4 3 4 4 4 4 4 5 5 5 5 4 4 3 2 2 1 1 1 0 0 -0 -0 -1 -1 -1 -1 -1 -1 -2 -2 -2 -2 -2 -2 -2 -2 -2 -2 -2 -2 -2 -2 -2 -1 -1 -1 -1 -1 -1 -1 -0 -0 -0
3 3 4 4 4 4 5 5 6 6 6 7 7 7 7 7 7 7 7 7 7 7 7 7 7 7 7 6 5 5 4 4 3 4 5 6 6 5 5 5 5 4 4 3 3 2 2 1 1 0 -0 -0 -0 -1 -1 -2 -2 -2 -2 -2 -2 -2 -2 -2 -2 -2 -2 -2 -2 -2 -2 -2 -2 -2 -2 -1 -1 -1 -1 -1 -1 -0 -0 -0 -0
4 4 4 5 5 5 6 6 6 6 7 7 7 7 7 8 8 8 8 8 8 8 8 8 8 8 7 6 6 6 6 6 6 6 7 7 6 5 5 5 4 4 3 3 2 2 1 1 0 0 -0 -0 -1 -1 -2 -2 -2 -2 -2 -2 -2 -2 -2 -2 -2 -2 -2 -2 -2 -2 -2 -2 -2 -2 -2 -1 -1 -1 -1 -1 -0 -0 -0 0 0
5 5 5 6 6 6 6 6 7 7 7 8 8 8 8 9 8 8 8 8 9 9 9 9 7 6 6 6 6 5 6 7 7 7 7 6 6 5 5 4 4 4 3 2 2 1 1 1 0 -0 -0 -1 -1 -2 -2 -2 -2 -2 -2 -2 -2 -2 -2 -2 -2 -2 -2 -2 -3 -2 -2 -2 -2 -2 -2 -2 -1 -1 -1 -0 -0 -0 -0 0 0
6 6 6 6 7 7 8 8 8 9 9 9 9 9 9 9 9 9 9 9 9 9 9 9 6 5 5 5 5 4 5 6 6 6 6 5 5 5 4 4 4 3 3 2 2 1 1 0 -0 -0 -1 -1 -2 -2 -2 -3 -3 -3 -3 -3 -3 -3 -3 -3 -3 -3 -3 -3 -3 -2 -2 -2 -2 -2 -2 -1 -1 -1 -1 -0 -0 -0 0 0 0
8 8 8 8 8 9 9 9 8 8 8 8 9 9 9 9 9 9 9 9 9 9 9 8 7 5 4 4 4 4 5 6 6 5 5 4 4 4 4 4 3 3 2 1 1 1 0 -0 -0 -1 -1 -1 -2 -2 -3 -3 -3 -3 -3 -3 -3 -3 -3 -3 -3 -3 -3 -3 -3 -3 -2 -2 -2 -2 -1 -1 -0 -0 -0 0 0 1 1 1 1
8 8 8 8 8 8 8 7 7 7 7 7 8 8 9 9 9 8 8 8 8 8 8 7 7 6 5 4 4 4 5 5 5 4 4 4 3 3 4 3 2 1 1 1 1 0 -0 -0 -1 -1 -1 -2 -2 -2 -3 -3 -3 -3 -3 -3 -3 -3 -3 -3 -3 -3 -3 -3 -3 -2 -2 -2 -2 -1 -1 -0 0 0 0 1 1 1 1 1 1
8 8 8 8 8 7 7 7 6 6 7 7 7 7 7 7 7 7 7 7 7 6 6 6 5 5 5 5 4 4 4 4 4 4 4 4 3 3 3 2 1 0 1 1 1 0 -0 -1 -1 -1 -1 -2 -2 -2 -3 -3 -3 -3 -3 -3 -3 -3 -3 -3 -3 -3 -3 -3 -2 -2 -2 -2 -2 -1 -1 -0 0 1 1 1 1 1 1 1 0
8 8 7 7 7 7 6 6 6 6 6 6 6 6 6 6 5 5 5 5 5 5 5 5 5 5 4 4 4 4 4 4 4 4 3 3 2 2 1 1 -0 -0 0 0 0 -0 -1 -1 -1 -1 -1 -2 -2 -2 -3 -3 -3 -3 -3 -3 -3 -3 -3 -3 -3 -2 -2 -2 -2 -2 -2 -2 -1 -1 -1 -0 0 0 0 0 0 0 0 0 -0
6 6 6 6 6 5 5 5 4 4 4 4 4 5 5 5 5 4 4 4 4 4 4 5 4 4 4 3 3 4 4 3 3 3 2 2 2 1 0 -1 -1 -1 0 0 -0 -1 -1 -1 -1 -1 -1 -2 -2 -2 -3 -3 -3 -3 -3 -3 -3 -3 -2 -2 -2 -2 -2 -2 -2 -2 -2 -1 -1 -1 -1 -0 -0 -0 -0 -0 -0 -0 0 -0 0
5 5 5 5 5 5 5 4 4 4 3 3 3 3 3 4 4 4 4 4 4 4 4 4 4 3 3 2 2 2 2 2 2 2 2 3 3 1 -1 -1 -2 -1 -0 -0 -1 -1 -1 -1 -1 -1 -1 -2 -2 -2 -2 -2 -3 -3 -3 -3 -3 -2 -2 -2 -2 -2 -1 -1 -1 -1 -1 -1 -1 -1 -1 -0 -0 -0 -0 -0 -0 -0 -0 -0 0
4 3 3 3 4 4 4 4 4 4 3 3 3 3 3 3 3 3 3 3 3 3 3 3 3 3 2 1 1 1 1 1 1 1 2 2 2 0 -1 -2 -2 -2 -1 -1 -1 -1 -1 -1 -1 -1 -1 -1 -1 -2 -2 -2 -3 -3 -3 -3 -2 -2 -2 -2 -2 -2 -1 -1 -1 -1 -1 -1 -1 -1 -1 -1 -0 -0 -0 -0 -0 -0 -0 -0 0
3 3 3 3 3 3 3 3 3 3 3 3 3 2 2 2 2 2 2 2 2 2 2 2 2 2 2 1 1 0 -0 -0 -0 0 0 0 -0 -1 -2 -3 -3 -2 -2 -1 -1 -1 -1 -1 -1 -0 -0 -1 -1 -1 -1 -2 -2 -3 -3 -2 -2 -2 -2 -2 -2 -2 -1 -1 -1 -1 -1 -1 -1 -1 -1 -1 -1 -0 -0 -0 -1 -1 -0 -0 -0
2 3 3 3 2 2 2 3 2 2 2 2 2 2 2 2 1 1 1 1 1 1 1 1 1 1 1 1 -0 -1 -2 -2 -2 -1 -1 -1 -2 -3 -3 -3 -3 -3 -2 -1 -1 -1 -2 -1 -1 -0 0 -0 -0 -1 -1 -1 -1 -2 -2 -2 -1 -1 -2 -2 -2 -1 -1 -1 -1 -1 -1 -1 -1 -1 -1 -1 -1 -1 -0 -0 -0 -1 -1 -1 -0
Height
782 785 785 787 788 789 791 792 794 795 796 798 799 801 803 805 805 804 804 804 805 806 807 808 810 811 812 813 814 815 816 817 818 818 819 820 821 821 822 823 823 824 824 825 825 825 825 825 825 825 825 825 824 824 823 823 823 822 822 821 821 821 821 820 819 817 815 815 814 813 812 811 810 809 808 807 806 806 805 804 803 802 801 800 800
782 784 786 788 788 789 790 791 792 793 794 796 798 800 801 803 805 805 803 803 803 804 805 805 807 808 809 811 812 813 814 815 816 817 817 818 819 820 821 822 822 823 823 824 824 824 825 825 825 825 825 825 824 824 823 823 822 821 821 821 820 820 820 819 818 816 815 814 814 812 811 810 809 808 808 807 806 805 804 803 802 801 800 798 797
781 783 786 788 789 789 789 790 790 792 793 795 798 798 799 800 803 804 803 804 803 803 803 803 804 805 807 808 809 810 811 812 814 815 816 817 818 819 820 820 821 822 822 823 823 823 824 824 824 824 824 824 824 824 823 822 822 821 821 820 820 819 819 819 818 816 815 813 813 812 810 809 809 808 807 806 805 804 802 801 800 799 798 797 796
778 781 787 790 789 789 789 789 790 790 791 794 796 798 798 798 799 800 802 803 803 803 803 802 803 803 804 805 806 808 809 810 812 813 814 815 816 817 818 819 820 821 821 822 822 823 823 823 823 823 823 823 823 823 823 822 822 821 820 820 819 818 818 818 817 816 814 812 811 811 809 808 807 806 805 804 803 802 801 800 799 797 796 795 794
775 781 789 791 790 790 789 789 790 789 790 791 793 795 797 797 796 796 798 800 801 801 802 801 801 801 801 803 804 805 807 808 809 810 812 813 814 815 817 818 819 820 820 821 822 822 822 822 823 823 823 823 823 822 822 822 822 821 820 819 818 817 817 816 816 815 813 811 810 809 808 807 806 805 804 803 801 800 799 798 797 796 795 794 793
778 785 791 791 789 789 789 789 790 789 789 790 791 792 794 795 795 794 795 796 797 799 800 800 799 799 799 800 802 803 805 807 808 809 810 811 813 814 815 816 817 818 819 820 821 821 822 822 822 822 822 822 822 822 822 822 821 821 820 819 818 817 816 816 815 814 812 811 809 808 807 805 804 803 802 801 800 799 798 797 795 794 793 792 791
785 789 791 789 788 787 787 789 789 789 789 790 791 792 792 793 792 793 794 794 795 796 797 797 797 796 797 798 799 801 802 805 807 807 807 808 810 812 813 815 816 817 818 819 819 820 820 821 822 822 822 822 822 822 822 821 821 820 820 819 818 817 816 815 814 813 811 809 808 806 805 804 803 801 800 800 798 797 796 794 793 792 791 790 790
787 789 789 788 786 784 785 787 787 787 788 789 791 791 791 789 788 790 792 793 793 794 794 794 794 794 794 795 796 798 799 801 804 806 806 806 808 810 811 813 814 815 816 817 818 818 819 820 820 821 821 821 821 821 821 821 820 820 819 819 818 817 816 814 813 812 810 808 806 805 803 802 801 800 799 798 796 795 794 793 792 791 791 790 789
786 787 786 786 785 783 784 785 785 786 787 788 789 789 787 786 785 786 790 791 792 791 791 791 791 791 792 792 793 794 796 798 800 803 804 804 805 807 809 811 812 813 815 815 816 817 817 818 819 819 819 819 819 819 819 819 819 819 819 818 817 816 815 814 812 810 809 807 805 803 802 800 799 798 798 797 796 794 794 793 792 791 790 788 787
784 784 784 784 784 784 785 785 785 786 787 787 786 784 783 783 783 785 787 788 789 788 788 789 789 789 790 791 792 792 793 795 798 801 802 802 804 805 807 809 810 811 813 814 815 815 815 816 816 817 817 818 818 817 817 817 817 817 817 817 817 816 814 813 811 810 808 806 804 803 801 799 798 797 796 796 795 795 794 793 791 790 789 787 785
783 783 783 783 783 784 784 785 785 785 785 784 784 782 781 781 781 783 784 785 786 786 786 786 786 787 789 790 790 789 791 793 795 798 800 801 802 804 805 807 808 810 811 812 813 814 814 814 814 815 815 816 816 815 815 815 815 815 815 815 815 815 814 813 811 810 808 806 804 802 800 798 797 796 795 795 794 793 792 792 790 789 788 786 784
783 782 782 782 782 782 783 783 783 783 783 782 782 781 781 780 780 781 781 782 784 784 784 785 785 785 786 787 788 789 789 791 793 796 798 799 801 802 804 805 807 808 810 810 811 812 812 813 813 813 814 814 814 814 813 812 812 812 812 812 812 812 812 811 810 809 808 805 803 802 800 798 797 796 795 794 793 792 791 791 790 789 787 786 783
782 782 781 782 781 781 782 782 782 782 781 781 781 780 780 780 780 780 780 781 782 782 783 783 783 784 784 785 787 789 789 790 792 795 797 798 799 801 803 804 805 807 808 809 810 810 811 811 811 811 812 812 812 813 812 811 810 810 810 809 809 808 808 808 807 807 806 804 802 800 799 798 797 796 795 794 793 792 791 790 789 788 786 784 783
781 781 781 781 781 781 781 781 780 780 780 780 779 779 779 779 779 779 779 779 780 781 781 781 781 783 783 784 786 787 788 790 793 795 797 798 799 800 803 804 804 806 807 807 808 809 809 809 809 810 810 810 810 811 810 810 810 809 809 808 807 806 804 804 804 803 802 801 800 798 797 797 796 795 795 794 793 792 791 789 788 786 784 782 781
780 780 780 780 780 780 780 780 780 779 779 779 778 778 778 778 778 778 778 778 778 779 780 780 780 781 782 783 784 785 786 789 793 795 796 797 798 800 802 803 804 805 806 806 807 807 807 808 808 808 808 808 808 808 808 809 809 808 808 807 806 804 803 802 801 800 799 798 797 796 795 795 794 793 793 792 791 790 789 788 787 785 783 780 778
779 779 779 779 779 779 779 779 779 778 778 778 777 777 777 777 777 777 777 777 777 777 778 778 779 779 780 782 783 783 785 788 791 794 795 796 798 799 801 802 803 804 804 805 805 805 806 806 806 806 807 806 806 805 806 807 807 806 806 804 803 802 800 800 798 797 796 795 794 794 792 792 791 790 790 790 789 788 788 786 785 785 782 779 776
777 777 777 777 777 777 777 777 777 777 777 777 776 776 776 776 775 775 776 776 776 776 776 777 777 778 779 781 782 782 784 788 791 793 794 796 797 799 800 801 802 803 803 803 803 803 804 804 805 805 805 805 804 803 803 804 804 804 803 802 801 799 797 797 795 794 793 792 791 790 789 788 788 787 787 787 786 787 786 783 783 784 781 777 773
775 775 775 775 775 776 776 776 776 776 775 775 775 774 774 774 774 774 774 774 774 775 775 775 776 777 779 780 780 781 785 788 791 792 794 795 797 799 800 800 801 801 801 802 802 802 802 802 802 803 803 803 801 800 801 801 801 801 800 799 798 796 795 794 793 791 790 789 787 786 785 784 784 783 783 783 783 783 782 779 780 782 778 774 772
774 774 774 774 774 774 774 774 774 774 774 773 773 773 773 772 772 772 772 773 773 773 773 774 776 777 778 778 779 781 785 789 791 793 794 795 796 798 799 799 799 800 800 801 801 800 800 800 799 799 800 800 799 798 798 799 799 799 798 797 795 793 793 792 791 789 788 786 785 783 782 781 780 779 779 779 778 779 778 776 777 777 774 772 771
772 772 772 772 772 772 772 772 772 772 772 771 771 771 771 770 770 770 771 771 772 772 773 774 775 776 777 779 780 783 786 788 791 792 793 795 796 797 798 799 799 799 799 800 800 799 799 799 797 796 797 797 797 797 796 796 796 796 795 794 792 791 791 789 788 787 786 784 783 781 780 779 778 777 776 775 775 774 774 773 773 773 771 769 769
770 770 770 770 770 769 769 770 769 769 769 769 769 769 768 768 768 768 769 770 771 772 772 774 775 777 779 780 782 784 786 788 790 792 793 794 795 796 797 798 799 799 799 799 799 798 798 798 795 794 795 795 795 795 794 793 793 792 792 791 790 789 788 787 786 785 784 782 781 779 778 777 776 774 773 772 771 770 770 769 769 769 768 767 766
768 768 768 767 767 767 767 767 767 767 767 767 767 767 766 766 766 766 767 768 770 771 773 774 776 778 780 782 783 785 787 788 790 791 793 794 794 795 796 797 798 799 798 797 797 796 796 797 794 792 793 793 793 792 792 791 790 788 787 787 786 786 786 785 784 783 781 780 778 777 775 774 773 771 770 769 767 767 766 766 765 765 765 764 764
765 765 765 765 764 764 764 765 765 765 765 765 765 764 764 764 764 764 766 767 769 772 774 775 777 779 781 783 784 785 787 788 790 791 792 793 794 794 795 796 796 797 797 796 796 795 795 795 793 791 791 791 790 789 789 788 787 785 785 784 784 783 783 782 781 780 778 777 776 774 772 771 770 768 767 765 764 763 763 762 762 762 761 761 761
763 762 762 762 762 762 762 762 762 762 762 762 762 762 762 762 762 763 765 767 770 773 774 775 777 779 781 783 785 786 787 788 789 790 791 792 793 793 794 794 795 795 795 794 794 794 793 792 791 790 789 789 788 787 786 785 784 783 782 782 781 781 780 779 778 777 775 774 773 771 769 769 767 765 764 763 762 761 760 759 759 759 758 758 757
759 759 759 758 759 759 759 759 759 759 759 760 760 760 761 761 762 763 765 767 770 772 773 774 776 778 780 782 784 786 787 788 789 790 791 791 792 792 793 793 793 793 793 793 792 792 791 791 790 789 788 787 785 784 783 782 781 781 780 780 779 778 777 776 775 774 772 771 769 768 766 766 764 763 762 761 760 759 758 757 756 756 755 755 754
756 756 756 755 755 756 756 756 756 756 757 758 758 759 760 761 762 764 765 767 769 771 772 774 775 777 780 782 783 785 786 787 788 789 790 790 790 791 791 792 792 792 791 791 790 790 790 789 788 787 786 784 783 782 781 780 779 779 778 777 776 775 774 773 772 771 769 768 766 765 763 763 762 760 760 758 757 756 755 755 754 753 753 752 751
752 752 752 752 752 753 753 753 754 754 755 756 757 758 759 761 762 763 764 766 768 770 771 773 774 777 779 781 782 784 785 787 788 789 790 790 790 791 791 791 791 791 790 789 789 789 788 787 786 785 783 782 781 780 779 778 777 776 775 774 773 772 771 770 769 768 766 764 763 762 760 759 758 758 757 756 754 753 753 752 751 750 750 750 748
749 748 749 750 750 751 751 752 752 753 754 756 757 758 759 760 761 762 763 765 766 768 770 772 774 776 778 780 782 783 784 785 787 788 789 790 790 791 791 791 791 791 790 789 788 788 787 785 784 782 781 780 779 778 777 777 776 775 774 773 772 771 769 768 767 765 763 762 760 759 758 757 756 754 754 752 751 751 750 750 749 748 748 747 746
745 746 747 748 748 749 749 750 750 751 753 755 757 758 759 760 761 762 763 765 766 768 770 773 775 776 779 781 782 783 784 785 786 788 789 789 790 790 790 790 790 790 789 788 787 786 785 784 782 780 779 778 778 777 776 776 774 774 773 771 770 769 768 766 765 763 761 760 758 756 755 754 753 752 751 749 748 747 747 746 745 745 745 745 743
742 743 744 745 745 746 747 748 749 751 752 754 756 758 759 761 761 762 764 766 768 769 771 774 777 778 779 781 782 783 784 785 787 788 789 789 789 789 789 789 789 789 788 787 786 786 784 782 780 779 778 777 777 776 775 774 773 772 771 770 769 767 766 765 763 761 759 758 756 754 753 752 750 749 748 746 745 744 744 743 742 742 742 741 740
740 740 741 741 741 743 745 746 748 750 752 755 756 757 759 762 763 765 766 768 770 772 773 775 778 780 780 781 783 784 785 786 787 788 789 789 788 788 788 788 788 788 787 787 786 785 782 780 778 778 778 777 776 775 774 773 772 771 769 768 767 765 764 762 760 759 757 755 753 752 750 749 747 746 745 743 742 741 740 739 739 739 738 738 736
735 736 737 738 738 740 742 744 746 749 752 755 757 758 759 762 764 766 769 771 772 774 775 777 778 780 782 783 784 785 785 786 787 788 788 788 788 788 788 788 788 788 787 786 785 783 781 780 779 778 778 777 776 775 774 773 771 770 768 766 765 763 762 760 758 756 754 752 751 749 747 746 744 743 741 740 739 738 737 736 736 735 734 733 732
732 733 734 735 736 738 740 743 746 748 751 754 757 758 760 762 763 766 769 773 775 776 778 779 780 782 783 784 785 786 786 787 788 788 788 788 788 788 788 787 787 787 786 785 784 782 781 780 779 778 777 776 775 774 773 771 770 768 767 765 763 761 759 758 756 754 752 750 748 746 744 742 741 739 738 736 735 734 733 732 731 731 730 729 728
728 730 731 732 734 737 739 742 746 749 751 754 757 759 760 762 764 766 769 773 776 778 780 781 782 783 784 785 786 786 787 787 788 788 788 788 788 788 787 786 785 785 785 784 783 782 781 780 779 778 777 775 774 773 772 770 769 767 765 763 761 759 757 755 753 751 749 747 745 742 740 739 737 736 734 733 731 730 729 728 727 726 725 725 724
725 727 728 731 734 737 739 742 746 748 751 754 757 759 762 764 766 769 771 773 776 779 781 782 783 784 785 786 786 787 787 788 788 788 788 788 788 787 786 785 784 784 784 784 783 781 781 780 779 778 776 775 774 772 771 769 767 765 763 761 759 757 755 753 751 748 746 744 742 739 737 736 734 732 731 729 727 726 725 723 723 722 721 721 720
723 725 727 730 734 737 741 744 746 748 751 754 758 762 765 768 770 772 774 775 777 779 781 783 784 785 786 786 787 787 787 787 788 788 788 788 787 787 785 783 783 784 784 783 782 782 781 780 779 777 776 774 773 771 770 768 766 764 762 759 757 755 753 750 748 745 743 741 738 736 734 732 730 729 727 725 723 722 720 719 719 718 717 717 716
721 724 727 731 735 739 743 746 748 750 753 757 761 764 767 770 772 773 775 776 778 780 782 783 784 785 786 786 786 786 786 787 787 787 787 787 786 786 785 783 783 783 782 782 782 781 781 780 778 777 775 774 772 771 769 767 765 762 760 758 755 753 750 747 745 742 740 737 735 732 730 728 726 724 723 721 719 717 716 715 714 714 713 713 713
722 725 729 733 737 741 745 748 751 754 756 760 763 765 767 770 771 773 775 777 778 780 781 782 783 783 784 784 785 785 786 787 787 786 786 785 785 785 784 783 783 783 782 782 781 781 780 779 778 776 775 773 771 769 767 765 763 761 758 755 753 750 747 744 741 739 736 733 731 728 726 724 722 720 718 716 714 712 711 710 710 709 709 709 709
725 730 734 737 740 743 747 750 753 756 758 761 764 767 768 770 772 773 775 777 778 779 780 780 781 781 781 783 784 785 786 785 785 785 784 784 784 784 784 784 783 783 782 782 781 780 780 778 777 776 774 772 770 768 766 764 762 759 756 753 750 747 744 741 738 735 733 730 727 725 722 720 717 716 714 712 710 708 706 705 705 705 704 705 705
732 736 739 741 743 746 749 752 755 757 759 762 765 767 769 770 771 773 775 776 777 777 778 778 779 779 780 782 784 784 784 783 782 783 783 783 784 784 784 784 783 783 782 782 781 780 779 778 776 775 773 772 770 768 765 763 760 757 754 751 748 744 741 738 735 732 729 726 723 721 718 715 713 711 710 708 706 704 702 701 701 701 701 701 702
737 740 743 745 747 749 751 754 756 758 759 761 763 766 768 769 771 773 774 775 776 775 776 777 778 779 781 782 783 784 784 783 782 782 783 783 784 784 784 784 783 782 782 781 781 780 778 777 776 775 773 771 769 767 764 762 759 755 752 749 746 742 739 736 732 729 726 723 720 717 714 712 710 708 706 704 702 700 699 698 698 698 698 698 699
741 744 746 748 749 750 752 754 756 758 760 761 763 766 768 769 771 772 773 774 774 775 776 777 779 781 782 782 784 785 784 783 783 784 784 784 784 784 784 784 783 782 782 781 780 779 778 777 776 774 772 770 768 766 764 761 757 754 750 747 743 740 736 733 729 726 723 720 717 714 711 709 707 705 702 700 698 696 695 695 695 695 696 696 697
744 746 747 749 750 752 753 756 758 760 762 764 765 767 769 769 771 772 773 774 775 776 776 778 780 782 783 783 784 784 784 783 784 785 785 785 785 785 784 783 783 782 782 781 780 779 778 777 775 774 772 770 768 766 763 760 756 753 749 745 741 738 734 730 727 724 720 717 714 711 708 706 704 701 699 697 695 694 693 693 693 693 694 694 695
747 748 749 751 753 755 757 759 761 763 765 766 768 769 770 771 772 773 775 776 777 778 779 780 781 783 783 783 783 784 784 784 785 785 786 786 786 785 784 783 783 782 781 780 779 779 778 776 775 773 771 769 767 765 762 759 755 751 748 744 740 736 732 728 725 721 718 714 711 708 706 703 701 699 697 695 693 692 692 692 692 692 692 693 693
750 751 753 754 756 759 760 762 764 766 767 769 770 771 772 773 774 776 777 778 779 780 781 782 783 784 784 784 784 785 785 786 786 786 786 786 785 785 784 783 782 782 781 780 779 778 777 776 774 773 771 769 766 764 761 757 754 750 747 743 739 734 730 727 723 719 716 712 709 707 704 702 700 698 696 694 692 691 691 691 691 691 692 692 692
754 755 757 758 760 762 764 765 767 769 770 771 772 773 775 776 777 778 779 779 780 782 783 783 784 784 784 784 785 786 786 786 786 786 786 786 785 785 784 783 782 781 781 780 779 778 777 776 774 772 770 768 766 763 760 756 752 749 745 741 738 733 729 725 721 718 714 711 708 706 703 701 699 697 695 693 692 691 691 691 691 691 691 692 692
758 759 761 762 763 765 766 768 769 770 772 773 774 775 776 777 778 779 780 781 782 783 784 784 785 785 785 786 786 786 787 787 787 787 787 786 786 785 784 783 782 781 780 780 779 778 777 775 774 772 770 768 765 762 759 755 751 748 744 740 736 733 729 725 721 717 713 710 708 705 703 701 699 697 695 693 692 692 692 692 692 692 692 692 692
762 763 765 765 767 768 769 770 772 773 774 775 776 777 778 779 780 780 781 782 784 784 785 785 785 786 786 787 787 788 788 788 788 787 787 786 785 785 784 783 782 781 780 779 778 777 776 775 774 772 770 768 765 762 759 755 751 747 743 739 736 732 729 725 721 717 713 711 708 706 704 701 699 697 696 694 693 693 693 692 692 693 693 693 693
766 767 768 768 769 770 771 773 773 774 775 777 778 778 779 780 781 782 783 784 785 785 786 786 786 787 787 788 788 789 789 788 788 788 787 786 786 785 784 783 782 781 780 780 778 777 776 775 773 772 770 768 765 763 759 755 752 748 744 740 736 732 729 725 721 718 715 712 709 707 705 702 700 699 697 696 695 694 694 694 694 694 694 695 695
770 770 771 771 772 773 774 775 775 776 778 779 780 780 781 782 783 784 785 785 786 786 786 787 787 787 788 788 789 789 789 789 788 788 787 787 786 785 784 783 782 781 781 780 778 777 776 775 773 772 770 768 766 763 760 756 753 749 745 741 737 733 730 726 723 720 716 713 711 709 706 704 702 701 699 698 697 697 696 696 696 697 697 697 698
773 773 774 774 774 775 776 777 778 779 780 781 782 783 784 784 785 786 786 786 787 787 787 788 788 789 789 789 790 790 789 789 789 788 787 787 786 785 785 784 783 782 781 780 779 777 776 775 774 773 771 769 767 764 761 758 754 750 746 742 738 735 731 728 725 722 719 716 713 711 709 707 705 703 702 701 700 700 699 699 699 700 700 700 701
Wind_Speed
9 9 9 11 12 13 14 14 14 15 15 14 14 14 13 13 15 15 16 17 18 19 18 18 18 17 16 15 15 14 13 13 12 11 10 9 8 7 7 6 6 5 4 3 3 2 1 2 2 2 3 4 5 6 6 5 6 7 6 6 6 6 7 8 9 9 11 11 11 12 12 12 13 13 13 14 13 13 13 14 15 15 16 17 17
4 6 8 10 11 12 12 12 13 14 14 14 13 13 13 14 15 16 16 17 18 19 19 19 19 19 18 17 16 16 15 15 14 13 12 11 10 9 8 7 7 6 5 4 4 3 2 2 2 2 3 4 5 6 7 6 7 8 7 7 7 7 7 9 9 10 11 11 12 13 12 12 12 12 12 14 14 14 15 15 15 16 16 16 17
4 4 5 7 9 11 12 12 12 13 14 15 14 14 16 16 16 15 16 16 17 19 20 20 20 20 19 19 18 17 17 16 15 14 13 12 12 10 9 9 8 7 6 5 5 4 3 3 3 3 3 4 5 6 7 7 7 8 8 8 9 9 9 9 10 11 12 12 12 12 12 12 12 12 13 14 15 14 15 15 15 15 16 16 16
5 4 6 8 7 7 9 10 10 10 11 12 12 13 17 19 18 17 16 17 18 18 19 20 20 20 20 20 19 19 18 17 17 15 14 14 13 12 11 10 9 8 7 6 4 4 4 4 3 3 4 5 6 6 6 6 7 8 9 9 10 10 9 9 10 11 12 13 12 12 13 13 13 14 14 14 14 14 15 15 15 15 15 15 15
11 5 4 7 5 5 7 8 8 8 10 13 14 14 16 18 18 18 18 18 19 19 20 20 21 21 21 20 20 19 19 18 18 17 16 15 14 13 12 11 10 8 7 6 5 4 4 4 4 3 4 5 5 6 6 7 8 9 10 11 11 11 10 10 11 12 13 14 14 14 14 14 14 14 14 14 14 14 14 14 14 14 15 16 16
11 7 3 4 3 3 3 5 6 7 10 14 16 17 18 19 18 17 17 18 19 20 21 21 22 21 21 20 20 19 19 18 18 17 16 16 15 14 12 11 10 9 8 6 5 5 4 4 4 4 4 5 5 6 6 7 8 9 10 11 12 12 12 12 12 13 14 15 15 15 15 15 15 14 13 13 14 14 14 14 14 14 15 15 14
6 4 2 1 2 3 2 2 4 5 6 10 13 16 19 20 17 15 15 16 18 21 24 23 23 22 22 21 20 20 19 19 19 18 17 17 16 15 14 12 11 9 8 7 6 6 5 5 5 4 4 4 4 4 5 7 8 9 10 11 12 13 13 13 14 14 14 15 15 15 15 14 14 14 13 13 14 14 14 14 13 12 11 11 11
3 1 1 2 2 2 2 4 5 6 7 8 11 15 17 16 15 15 17 19 20 23 24 23 22 22 22 22 21 21 20 20 20 20 18 18 17 16 15 13 12 11 9 8 8 7 6 6 5 5 4 4 5 6 7 7 8 9 10 11 12 13 14 14 14 15 15 15 15 15 15 15 14 14 14 13 13 13 11 12 12 12 12 13 14
2 1 0 1 2 3 4 5 6 7 8 9 11 13 14 13 14 15 20 23 24 23 22 21 21 21 21 21 21 22 21 21 22 22 19 18 18 16 15 13 12 11 10 9 9 8 7 6 6 7 8 8 9 9 9 9 10 10 10 11 12 13 14 15 15 15 15 15 15 15 15 14 14 13 13 12 12 13 12 13 14 15 15 17 17
2 1 2 2 1 2 3 4 6 7 9 10 11 11 11 11 12 14 18 21 21 20 20 20 20 20 21 22 22 22 21 20 22 23 21 19 17 16 14 13 12 11 10 9 9 8 8 7 7 10 11 11 10 8 8 9 10 11 11 11 12 13 14 15 15 15 16 16 16 15 15 15 15 14 14 14 13 15 15 15 16 16 16 16 16
3 3 3 3 3 4 5 5 6 8 9 9 9 10 10 10 11 12 14 15 16 17 18 19 19 19 20 21 20 19 20 20 22 24 24 20 17 15 14 13 12 11 10 9 9 8 8 7 7 9 10 9 7 7 10 11 10 10 11 12 13 15 16 16 16 16 16 17 17 16 16 17 17 16 16 15 15 15 15 15 15 15 15 14 14
3 3 4 5 5 6 6 7 8 8 9 9 9 9 10 10 11 11 12 13 14 15 16 17 17 17 17 18 17 16 18 20 23 27 27 23 18 14 12 12 12 10 10 9 8 7 7 6 6 7 8 9 8 9 12 12 10 10 12 14 15 17 17 17 18 18 17 18 18 18 17 17 18 17 15 15 15 15 15 15 15 15 16 16 16
4 4 5 6 6 7 7 8 9 9 9 9 9 9 9 10 11 11 11 12 12 13 14 14 16 16 14 16 17 16 16 19 24 28 27 24 21 14 10 11 11 9 9 9 7 7 6 6 7 7 8 10 10 9 9 9 9 10 13 15 17 18 18 17 18 19 20 20 20 20 19 18 18 17 16 16 17 17 17 17 17 17 18 18 17
4 5 6 7 7 8 8 9 9 9 10 10 10 11 11 11 11 10 11 12 11 12 13 13 15 16 15 17 18 18 18 21 24 28 26 24 21 15 9 9 9 8 8 8 7 7 7 7 8 7 8 8 9 8 7 7 9 10 13 15 17 19 19 19 20 21 23 24 24 23 20 20 20 19 18 18 18 18 17 17 18 19 21 21 20
6 6 7 8 8 8 8 9 9 9 10 10 11 12 12 12 12 11 11 12 12 12 13 14 15 15 16 17 18 18 20 21 25 27 25 21 19 14 9 8 8 7 7 8 8 8 8 8 8 9 9 9 10 10 9 9 10 11 13 16 17 18 19 19 20 21 23 25 26 25 22 21 21 20 19 18 18 19 19 20 20 20 22 23 23
7 8 8 9 9 8 8 9 9 10 11 11 12 12 12 13 13 12 12 12 12 11 12 13 14 14 15 15 15 18 21 23 26 26 22 19 17 13 9 8 7 7 7 8 8 8 9 9 9 9 9 10 12 13 13 13 12 13 15 17 17 18 18 19 20 22 24 25 26 27 26 26 25 25 26 26 28 28 26 24 22 20 21 22 22
8 9 9 10 9 8 9 9 10 10 11 12 13 13 13 13 13 12 13 12 13 12 11 12 14 15 16 14 14 18 22 25 26 24 20 17 14 10 8 8 7 7 8 8 8 8 9 9 10 10 10 12 15 16 16 16 14 14 16 17 17 18 18 18 19 21 23 25 27 28 30 31 30 30 30 31 32 31 29 25 21 20 22 21 19
10 10 11 11 10 9 10 10 10 11 12 13 14 13 14 14 13 12 13 13 14 13 11 12 12 13 14 15 17 21 26 27 25 21 18 15 12 9 7 7 7 7 7 7 7 8 9 11 12 13 13 15 17 17 17 17 15 14 17 17 18 19 19 18 19 20 21 24 26 27 28 29 29 29 29 28 27 26 26 25 22 22 25 23 20
11 12 12 12 12 11 11 11 11 12 12 13 14 14 14 14 14 13 13 13 13 12 11 12 10 8 11 15 18 23 28 27 23 18 15 13 11 7 4 4 4 4 5 7 8 8 9 11 14 15 15 16 17 16 17 17 15 14 16 18 20 21 19 19 20 20 21 22 23 24 24 24 25 26 26 25 23 23 25 24 22 24 28 28 25
13 14 14 14 13 13 13 12 12 12 13 13 13 14 14 14 14 14 12 13 13 11 10 10 8 10 12 15 19 25 28 26 21 17 14 12 10 6 2 1 3 5 5 7 8 8 9 11 12 11 10 13 15 16 16 17 15 15 16 18 20 21 20 20 21 22 23 22 22 23 23 23 24 24 24 25 24 24 25 24 24 25 28 29 28
15 15 16 16 16 15 15 14 14 13 13 13 13 13 14 14 14 14 13 14 13 8 6 9 12 14 15 17 20 24 25 22 19 17 13 11 9 7 3 2 4 5 6 8 10 10 11 10 9 8 8 10 13 13 15 17 18 19 19 20 23 24 25 25 25 25 25 25 24 24 24 23 23 24 24 24 23 23 23 23 24 25 26 27 27
16 16 17 17 17 17 16 15 15 14 13 13 13 14 14 14 14 13 12 12 9 6 8 12 16 17 16 18 21 22 20 17 16 15 12 10 8 6 5 5 7 7 8 10 10 11 12 11 10 9 9 10 13 16 19 22 22 22 22 23 25 25 25 25 24 24 24 23 22 23 22 21 22 22 22 22 22 22 22 22 23 23 25 26 26
17 17 18 18 18 17 17 16 16 15 14 13 13 14 13 14 14 13 10 9 9 9 11 14 17 17 15 15 17 18 15 13 12 11 10 8 7 6 5 7 9 8 8 10 11 12 12 12 12 12 13 16 20 23 24 23 21 19 19 19 20 21 21 22 22 22 22 22 22 23 22 21 21 21 21 21 21 21 21 22 22 23 23 25 26
17 18 18 18 18 18 17 17 17 15 14 13 13 14 14 15 15 11 8 9 12 13 14 16 17 16 14 13 13 13 12 10 9 8 7 6 5 6 6 6 8 8 8 10 11 11 12 13 15 17 20 23 24 23 21 19 17 17 17 17 19 20 20 21 21 20 21 21 21 22 22 21 21 21 21 21 20 20 21 21 22 22 23 24 24
18 18 18 18 18 18 17 17 17 16 15 14 14 14 14 12 10 9 9 11 14 15 15 16 16 15 14 13 12 11 11 10 7 6 4 3 3 3 4 6 7 9 9 9 10 11 13 15 16 18 20 20 20 19 18 17 17 17 17 19 21 20 19 18 18 19 20 20 21 21 21 21 21 22 22 21 21 21 21 22 22 23 24 24 24
19 19 19 19 19 18 18 18 18 18 17 15 14 12 10 9 10 9 10 12 14 16 16 17 16 16 14 13 12 12 12 10 8 6 4 2 2 2 5 7 8 10 12 11 9 10 12 13 14 16 17 17 16 16 17 17 17 18 18 19 20 18 17 17 18 19 19 20 21 21 22 22 22 22 21 21 22 21 21 21 22 22 22 22 23
20 20 19 19 18 18 18 18 19 18 15 12 10 9 8 10 10 10 12 14 16 17 18 17 15 15 14 14 13 12 11 10 9 7 5 2 0 2 5 7 7 10 11 10 10 11 13 14 15 15 15 15 14 15 17 17 17 17 17 17 17 17 17 18 19 20 21 22 23 23 23 23 22 22 21 21 22 21 21 21 22 21 21 21 22
22 21 20 19 18 18 18 17 17 16 12 7 6 7 8 9 10 11 14 17 18 19 19 17 15 14 13 13 13 12 10 9 8 5 2 1 1 2 3 5 6 7 9 11 14 15 15 14 14 13 14 14 14 15 16 15 15 16 16 16 16 17 18 19 20 21 22 22 23 23 22 22 22 22 22 22 22 21 21 21 23 22 22 21 20
23 22 20 20 19 18 17 15 12 10 7 6 6 7 9 11 11 12 13 16 20 21 19 16 15 14 12 10 9 10 10 10 7 2 2 2 2 3 3 5 6 7 10 14 15 14 12 11 11 12 13 14 14 15 15 15 16 16 16 17 17 17 18 18 19 20 20 21 22 22 20 20 21 21 22 22 22 22 21 22 23 23 22 21 21
22 21 20 21 20 17 15 13 8 6 8 10 12 12 11 12 16 19 20 21 22 21 19 17 17 16 15 12 9 9 9 8 4 2 2 2 3 5 6 7 8 9 11 13 11 10 10 11 12 13 14 14 14 15 15 16 16 17 17 17 17 17 18 19 19 20 21 21 22 22 21 21 21 21 22 22 23 23 22 23 24 24 23 23 23
20 20 20 20 18 15 12 10 9 12 13 16 20 22 21 20 22 24 24 22 22 21 20 20 17 15 14 12 10 9 7 6 4 3 3 4 6 7 6 6 7 10 12 12 9 9 11 12 13 13 14 15 15 15 16 16 17 18 18 18 18 18 19 19 20 21 22 22 22 23 22 22 22 22 22 22 23 23 23 23 24 24 25 25 25
20 19 19 18 16 13 11 12 15 17 18 19 23 25 25 24 24 24 22 20 20 19 18 16 13 11 10 10 9 8 7 6 5 4 5 6 7 6 6 6 6 7 9 9 9 10 12 14 14 15 15 15 15 16 17 17 18 18 19 19 19 19 19 20 21 22 22 23 23 23 23 22 23 23 22 22 22 23 23 23 23 23 25 26 26
22 21 17 14 14 14 15 18 20 21 21 21 21 21 19 19 21 23 22 20 19 17 15 13 11 10 10 9 9 9 8 7 5 5 6 7 7 6 6 5 5 5 7 9 10 12 14 15 15 15 16 16 16 17 17 17 18 19 19 19 20 20 20 20 22 22 23 23 23 23 23 23 23 23 23 23 23 23 23 22 23 23 23 23 24
23 20 15 13 16 18 21 24 23 21 22 22 20 19 19 18 19 20 21 21 19 17 15 12 9 9 9 8 8 8 7 7 6 7 9 9 8 5 3 5 7 5 6 8 11 14 16 16 16 16 16 16 17 17 18 18 18 19 20 20 20 21 21 21 22 22 22 22 22 22 22 23 23 23 22 22 22 22 22 22 22 22 22 22 22
19 15 14 15 18 22 26 27 26 25 26 26 25 23 22 21 19 18 19 20 19 16 14 12 10 8 8 8 8 7 7 6 7 9 10 9 8 5 6 8 7 6 6 8 11 14 16 16 16 16 16 16 17 17 18 19 19 20 20 20 21 22 23 23 23 23 23 23 22 22 22 24 24 24 23 22 22 22 22 21 20 20 21 21 21
15 16 18 20 24 27 28 27 28 30 30 28 27 25 23 20 18 16 16 16 15 12 11 11 10 9 8 7 7 5 5 5 6 7 6 5 5 6 9 9 9 9 9 11 13 14 15 15 16 16 16 17 17 17 18 19 20 20 20 21 22 22 22 23 24 24 25 25 25 24 24 24 25 24 23 23 23 23 22 22 22 22 21 21 20
19 23 25 28 30 30 29 28 29 30 29 27 25 23 20 18 16 15 13 13 12 11 10 11 11 10 8 6 5 4 3 2 1 1 1 2 3 6 9 11 12 10 10 12 14 14 15 15 15 15 16 16 16 17 18 19 20 21 21 22 22 23 23 25 26 27 27 27 26 25 25 25 25 25 24 24 24 23 23 23 24 23 23 23 21
29 30 31 33 33 32 31 30 29 28 25 23 21 20 18 16 15 13 12 12 12 11 11 11 10 9 8 7 4 3 2 5 6 6 6 6 6 6 8 12 12 11 12 13 14 14 14 15 15 15 15 16 17 18 19 21 21 22 22 22 23 23 25 26 26 26 26 25 25 25 25 25 25 24 24 24 24 23 23 23 22 21 22 22 21
32 33 33 33 32 31 30 29 28 25 22 20 18 18 17 16 15 13 12 12 12 11 10 10 9 7 8 8 7 5 7 10 11 10 7 5 6 7 9 11 12 12 13 13 13 14 14 15 15 15 15 16 17 19 20 21 22 23 23 23 23 24 25 25 24 23 24 25 26 27 27 26 25 24 23 23 22 22 23 23 22 21 20 19 19
32 32 32 32 31 30 30 29 28 25 23 22 20 18 17 15 14 14 13 12 11 10 9 8 6 6 8 8 5 5 6 6 6 5 4 6 7 8 10 10 11 12 13 13 13 14 14 15 15 15 16 17 18 19 19 20 22 23 23 23 24 25 25 24 23 24 26 27 29 30 28 25 24 23 22 21 22 22 22 21 19 19 18 17 17
28 27 28 29 29 28 28 27 26 24 22 21 19 17 15 14 13 12 11 11 9 7 7 6 7 7 6 6 5 4 4 5 5 5 5 5 6 8 9 10 10 12 12 12 13 13 14 14 15 15 16 17 18 18 18 20 23 24 24 24 25 26 25 25 25 26 27 28 29 28 26 24 24 23 22 23 24 24 22 19 17 17 17 17 17
22 22 23 24 23 22 22 22 21 20 18 17 16 14 12 11 11 10 10 9 7 6 5 5 8 6 3 4 4 4 3 4 4 5 5 5 5 7 9 9 10 11 11 11 12 13 14 14 14 15 16 17 17 17 19 23 26 26 26 26 26 27 28 28 27 27 27 28 28 27 26 25 25 24 24 24 23 20 17 16 15 15 15 15 16
21 21 22 21 20 19 19 18 17 16 15 13 12 10 9 10 10 9 7 6 5 4 3 4 6 5 1 1 2 3 3 3 3 4 5 5 5 6 8 9 10 10 10 10 11 12 13 14 15 15 16 17 16 16 20 25 28 27 26 26 26 27 28 27 26 26 27 28 28 27 26 25 24 22 22 21 18 13 12 12 13 13 12 12 12
20 19 19 18 17 16 16 15 15 15 15 14 12 9 9 9 9 8 7 7 6 5 3 3 3 3 2 2 1 0 2 3 3 4 5 5 5 6 8 9 9 9 10 10 11 12 13 14 15 15 17 17 16 17 21 26 29 29 29 28 27 27 27 26 26 27 28 28 28 26 24 23 22 20 19 17 13 9 9 10 10 9 8 8 8
18 17 16 16 15 15 14 15 14 14 13 13 11 11 10 10 10 10 9 7 6 5 5 4 3 2 2 3 3 3 2 3 3 3 5 5 6 7 8 9 8 8 9 10 11 12 13 14 15 16 17 16 15 18 24 29 31 31 31 30 28 27 27 28 29 28 27 26 25 23 23 23 21 18 16 13 9 6 5 6 6 6 6 6 7
15 15 14 14 15 15 14 14 13 12 12 11 11 11 10 10 10 10 9 9 8 6 4 3 3 3 3 3 3 3 3 3 3 4 5 6 6 7 8 8 8 8 9 10 11 12 13 14 15 17 18 17 17 20 26 30 31 32 32 31 29 29 28 27 27 25 24 22 20 20 21 20 17 15 13 10 7 4 3 3 4 5 5 6 8
15 14 14 14 15 15 14 13 13 13 13 12 12 11 10 10 10 10 10 9 8 5 4 3 3 4 4 4 3 3 3 3 3 4 5 6 7 7 8 8 8 8 9 10 10 11 13 14 16 18 19 17 17 22 28 30 32 33 33 32 30 29 27 25 24 23 21 19 17 17 18 16 14 11 9 7 4 2 1 2 4 5 6 9 11
15 14 14 14 14 14 13 13 13 13 12 12 12 12 11 10 10 9 9 8 7 5 4 5 5 5 5 5 4 3 2 3 3 3 4 6 7 7 8 8 8 7 9 9 10 11 12 14 16 19 19 18 18 24 30 32 32 33 34 32 30 27 24 23 23 23 19 16 15 15 15 13 12 11 8 5 3 2 2 4 6 7 10 13 16
15 14 14 14 14 13 13 12 12 12 12 11 11 11 10 10 9 9 8 7 6 5 5 5 6 6 5 5 4 3 3 3 3 4 4 6 7 8 8 8 8 8 8 9 10 11 12 13 16 19 19 18 21 26 30 31 32 32 33 32 29 25 23 23 23 21 18 16 16 16 14 12 12 12 10 7 5 5 6 8 9 11 13 16 18
14 14 14 14 14 13 13 13 13 12 11 11 10 10 9 9 9 8 8 7 6 6 6 6 6 6 5 5 5 4 4 3 4 4 5 6 7 8 9 8 8 8 8 8 10 10 11 13 16 19 19 19 21 25 27 30 31 32 32 31 28 26 24 24 23 21 19 17 17 17 16 15 14 14 13 11 11 11 11 12 13 14 15 16 17
14 14 14 13 13 13 13 13 13 12 11 11 10 9 9 8 8 8 8 7 7 7 7 6 6 6 5 5 5 5 4 4 4 5 6 6 7 8 8 9 8 8 8 8 9 10 10 12 15 18 19 19 21 24 27 29 31 31 31 30 28 27 26 25 23 21 19 18 18 19 18 17 16 17 16 15 15 15 15 15 15 15 16 17 18
Wind_Direction
205 205 205 207 212 212 212 213 217 222 223 222 222 223 225 229 225 212 199 197 194 192 194 195 196 198 198 197 197 196 195 192 191 193 193 193 192 185 179 185 190 180 175 182 177 183 253 269 267 269 298 315 312 305 299 288 282 283 279 275 276 275 272 273 276 282 287 289 291 292 293 293 292 291 292 292 291 291 288 283 281 277 273 273 271
208 225 225 223 225 224 222 220 221 227 227 225 224 222 226 236 239 229 215 207 201 197 198 199 199 200 201 202 202 201 199 198 195 194 196 194 189 185 185 192 194 186 186 197 197 196 226 260 266 264 280 295 298 297 299 297 293 290 286 284 284 282 279 279 281 284 286 289 290 290 290 289 287 287 288 290 291 290 288 285 284 280 276 273 272
34 346 279 251 237 228 228 230 231 235 237 236 234 227 226 233 240 239 230 222 215 207 204 203 202 202 203 204 205 205 203 201 198 198 199 194 189 188 190 193 192 190 195 204 205 206 217 242 259 262 275 289 291 293 298 296 294 295 295 290 286 284 282 279 279 281 284 287 288 288 290 290 287 287 287 286 286 284 284 284 284 283 280 276 274
102 25 313 285 266 245 237 236 241 246 247 248 251 245 238 237 239 240 239 236 231 222 216 211 207 206 206 206 207 206 205 203 201 201 200 197 194 192 191 192 194 195 199 204 208 215 226 239 251 254 269 286 290 293 296 296 297 300 298 294 289 285 283 279 276 277 282 285 286 286 289 289 286 286 286 285 284 282 281 282 282 283 283 282 281
106 97 272 261 260 262 255 251 256 257 253 253 259 259 254 248 240 233 233 235 236 233 228 221 216 212 210 210 210 208 206 205 202 201 201 199 196 194 193 192 194 197 199 204 217 226 229 235 245 251 263 275 284 292 298 302 302 301 300 299 297 296 295 289 284 282 283 285 286 287 286 285 284 284 284 284 284 283 282 281 282 283 284 284 283
92 104 178 209 197 218 250 265 268 263 257 257 257 255 251 248 240 230 229 232 235 238 238 231 225 220 215 214 215 212 212 213 208 201 200 199 194 193 194 192 193 197 198 204 213 217 223 237 244 248 257 269 278 287 293 298 298 297 298 298 298 299 297 292 288 285 283 283 285 287 285 284 284 283 281 279 280 282 283 282 281 280 279 278 277
90 115 161 146 107 94 70 327 292 287 278 271 267 257 248 245 243 241 244 244 239 240 242 237 230 224 220 219 218 216 216 219 217 208 199 195 193 191 191 191 193 195 197 203 205 204 216 231 236 244 254 263 273 284 294 296 294 292 293 294 295 296 294 291 289 286 284 283 283 284 284 284 283 283 283 282 280 279 280 282 284 282 278 280 284
92 91 307 329 342 332 316 300 303 312 305 289 276 265 256 253 255 256 258 257 249 242 241 240 234 228 225 223 221 220 218 218 221 217 202 191 189 188 187 188 192 194 195 200 200 200 210 218 228 241 237 236 253 270 279 284 287 289 291 292 292 292 290 290 289 286 284 282 281 282 284 284 283 283 285 285 282 281 284 289 292 290 288 286 286
106 91 5 7 344 309 285 281 288 290 284 273 265 265 265 265 260 250 246 248 249 245 243 242 238 231 229 229 225 222 217 216 221 219 204 188 185 186 186 187 189 190 191 194 195 198 206 212 219 221 224 247 269 272 269 271 275 277 281 287 291 291 290 289 288 287 286 285 285 285 284 283 283 284 285 284 285 288 294 296 292 289 287 284 280
51 30 355 3 354 305 269 261 263 262 263 262 262 267 272 270 260 245 237 240 245 246 246 245 240 237 239 239 233 224 216 216 220 213 197 187 185 182 181 184 186 186 188 191 194 199 205 211 221 228 244 272 285 277 277 283 280 275 274 278 282 285 287 288 287 287 287 287 287 287 286 284 284 285 285 285 286 287 289 288 285 286 287 285 282
354 349 337 332 317 295 280 267 262 262 265 269 271 272 272 270 266 257 247 243 244 246 247 245 244 246 247 244 235 220 210 215 217 205 191 184 182 178 177 180 182 185 189 192 198 205 210 213 223 239 257 273 276 280 291 294 290 286 285 285 283 281 280 280 280 283 284 284 284 284 283 282 283 284 285 286 286 284 283 282 282 285 287 286 286
326 322 315 312 306 298 291 284 279 276 275 276 277 277 274 272 269 265 256 247 245 248 248 245 248 251 244 234 227 214 209 214 210 197 188 182 176 172 175 179 180 187 194 196 202 208 212 218 226 240 250 251 257 276 286 287 288 289 290 292 290 286 281 274 271 272 275 279 280 278 278 280 284 285 285 290 293 291 289 286 283 284 283 281 281
308 309 306 304 304 299 295 290 286 285 284 284 284 283 278 273 269 267 263 254 247 247 246 243 247 248 234 222 221 215 211 210 203 194 190 185 177 172 178 184 183 192 198 195 202 212 220 232 238 243 250 253 260 267 271 280 292 294 293 290 285 283 281 273 267 266 267 270 273 273 273 277 281 281 285 294 299 296 290 284 281 281 278 276 277
300 298 296 296 296 294 293 291 290 291 291 290 290 285 281 277 271 265 263 257 246 242 242 239 242 241 231 224 222 212 204 201 198 195 193 191 187 184 186 186 183 192 199 198 209 222 229 239 245 250 255 259 262 262 264 281 293 295 294 287 280 279 278 273 268 267 264 261 262 266 270 272 274 277 282 290 294 293 290 289 288 286 281 278 277
292 290 291 293 291 290 289 289 291 293 293 292 290 285 281 278 272 264 260 257 250 244 241 240 240 238 235 229 214 199 197 198 198 198 196 193 190 185 179 177 182 198 209 210 219 228 236 243 248 255 260 262 261 258 263 277 288 293 293 288 283 280 276 271 267 264 261 259 258 261 266 269 270 271 274 278 282 286 290 293 295 295 290 284 279
285 283 284 285 285 286 286 287 290 291 290 289 286 283 280 275 269 264 260 256 253 248 244 244 241 234 232 224 199 188 195 197 197 196 191 184 180 178 176 178 191 209 216 220 229 237 243 245 249 255 259 265 268 268 271 276 281 289 293 291 287 281 277 274 269 263 261 260 259 260 265 267 268 268 269 272 276 281 286 290 290 290 285 281 276
281 282 284 285 285 284 282 285 287 288 290 289 284 282 280 275 269 263 257 253 250 246 244 246 241 232 226 212 189 186 189 189 188 185 178 173 168 169 178 186 201 218 223 230 240 246 249 247 249 257 264 270 275 277 277 276 278 287 292 292 290 286 283 281 277 271 269 267 266 265 266 269 271 273 275 275 275 277 279 279 278 276 273 272 272
282 283 284 286 285 282 280 283 285 286 287 286 284 282 278 275 270 261 255 253 250 246 243 243 240 233 219 198 187 187 183 179 178 174 168 165 158 162 188 200 211 228 234 241 251 257 260 256 253 259 266 271 274 274 274 273 277 286 291 292 291 289 288 287 284 281 279 276 276 274 271 270 272 275 279 279 277 274 270 266 265 264 263 264 268
279 281 284 286 284 280 279 280 280 282 282 282 281 280 275 273 269 260 256 255 251 246 243 237 222 197 187 184 187 188 179 171 170 167 163 161 153 157 200 213 224 249 260 265 267 268 270 271 273 272 269 266 265 267 270 273 277 283 287 290 290 288 289 289 287 286 287 286 284 282 278 274 272 271 272 273 274 272 267 264 261 257 256 259 263
276 278 280 281 279 276 274 275 276 277 278 278 277 275 272 269 265 258 254 255 255 250 239 220 176 150 166 176 180 181 173 166 167 171 169 165 159 159 175 246 279 279 279 280 281 281 281 284 287 284 268 255 254 259 266 272 278 282 283 284 285 286 289 290 288 289 292 292 288 284 281 278 275 272 270 269 269 267 264 261 258 254 254 257 259
272 275 277 277 275 274 272 272 274 275 276 277 275 273 269 265 261 255 249 249 249 238 200 170 149 145 155 159 164 170 168 165 170 175 174 172 175 185 194 248 282 282 284 286 286 287 287 287 288 285 275 264 262 269 279 284 288 288 282 278 279 280 282 285 286 286 285 284 282 279 277 275 273 271 269 267 265 262 260 258 255 253 253 255 256
270 271 273 272 271 271 269 268 270 272 273 274 273 271 268 263 259 254 249 241 224 182 162 163 156 148 142 143 152 161 167 170 174 178 181 183 192 205 213 236 258 273 286 288 286 285 286 288 285 281 281 284 287 292 296 296 295 291 285 282 283 283 282 283 283 281 279 277 276 275 273 272 271 268 267 265 262 261 261 259 256 254 252 252 254
270 271 272 271 270 268 265 263 263 264 266 269 270 268 265 261 257 249 238 222 194 167 159 159 153 143 135 139 147 153 161 169 172 177 185 193 209 231 240 247 259 271 280 284 286 287 287 286 282 277 280 288 293 297 300 298 296 294 291 290 291 291 287 283 279 276 274 272 271 271 270 269 268 267 265 264 264 263 263 261 259 258 256 256 255
269 269 270 269 267 264 261 261 260 259 262 265 266 264 263 262 256 239 206 187 185 176 162 153 149 143 139 141 144 148 156 163 167 177 192 206 229 248 257 268 279 287 288 287 289 291 291 289 285 284 289 294 298 303 306 304 301 299 296 296 295 291 286 281 277 274 271 270 269 269 268 268 267 267 267 267 268 267 266 265 263 260 259 258 258
264 266 267 266 264 262 261 259 258 258 260 262 264 266 264 253 235 207 180 178 185 180 165 154 151 148 146 146 148 151 157 163 168 174 189 219 238 258 297 312 315 318 316 305 294 290 290 291 292 293 297 301 306 309 308 306 305 301 298 296 293 287 282 279 277 274 272 270 268 268 268 268 268 268 269 269 270 269 268 267 265 261 260 260 260
260 260 261 262 262 261 261 261 261 262 262 263 265 265 248 215 199 196 191 189 188 180 168 157 151 149 149 153 154 153 158 169 178 172 169 198 233 309 330 328 327 326 323 320 313 305 299 296 297 299 298 299 305 308 303 301 301 299 295 291 282 275 275 278 278 275 272 269 268 268 269 270 270 270 270 269 268 267 266 265 264 262 260 259 258
258 256 257 259 261 263 264 265 265 264 263 262 259 247 219 204 205 202 190 185 184 178 165 153 148 151 153 153 151 153 160 167 166 160 153 158 252 321 323 320 321 322 320 320 320 317 310 303 302 303 301 300 302 305 302 298 297 296 295 291 282 275 278 282 281 279 277 275 274 273 273 274 273 271 269 268 266 266 264 263 263 261 258 257 257
257 257 258 260 263 264 263 262 260 256 253 245 231 215 204 204 201 192 188 185 176 164 153 146 145 146 147 148 151 153 149 135 124 119 107 60 349 347 333 317 320 324 314 306 306 308 306 303 303 307 308 306 304 304 303 300 299 299 299 297 293 289 288 287 284 282 281 279 278 277 277 276 274 271 270 268 266 265 264 263 261 259 256 254 256
258 259 258 257 258 257 257 257 252 241 222 195 185 188 193 191 173 157 161 164 154 145 140 136 134 132 130 135 146 141 120 104 99 78 357 340 331 336 322 308 313 318 312 309 313 314 307 302 306 311 312 310 307 306 305 304 302 302 301 299 297 295 292 290 288 285 284 283 283 284 283 281 277 274 272 268 265 264 263 261 261 260 257 254 252
256 254 251 250 250 249 251 252 234 184 156 150 148 145 149 156 147 135 132 135 137 135 130 125 128 133 128 117 117 118 107 97 91 46 15 6 345 334 325 323 330 336 336 337 334 319 306 308 316 319 317 314 312 309 308 308 306 305 304 302 300 297 293 291 287 285 284 283 282 282 281 279 276 273 269 267 266 264 263 261 261 258 254 251 250
252 246 243 245 245 240 235 220 179 150 142 141 137 129 121 119 124 129 129 126 125 128 127 124 127 133 129 118 111 107 101 97 88 63 34 6 350 343 345 356 5 7 3 352 329 310 316 323 324 322 319 315 312 310 310 310 308 306 305 303 300 298 295 291 288 287 287 285 283 281 279 276 273 269 266 265 265 265 264 262 259 254 251 249 250
247 243 242 240 232 216 197 175 155 142 138 137 134 129 122 115 113 119 124 125 124 126 127 125 121 121 124 125 118 108 101 97 87 58 28 11 2 5 20 20 12 10 3 335 303 310 329 330 323 321 319 315 312 311 310 308 306 306 305 302 299 297 294 293 293 293 291 288 286 283 279 276 273 270 268 266 266 266 264 260 255 252 250 249 249
244 244 238 219 199 185 168 154 147 142 140 140 136 131 128 121 114 113 118 124 127 126 126 124 120 118 119 117 109 105 101 94 78 47 25 16 17 34 39 13 333 332 339 321 311 325 334 328 322 322 318 314 314 313 310 308 307 305 303 301 298 296 294 294 295 295 292 289 286 282 278 276 274 271 270 267 264 262 261 258 254 251 248 246 246
243 240 224 189 173 165 152 143 141 138 136 136 134 129 124 122 119 116 117 118 119 119 120 120 117 118 120 115 109 107 104 93 70 42 32 33 38 42 8 319 314 316 303 295 310 328 333 328 325 323 318 315 314 313 310 309 308 306 303 300 298 297 296 295 294 293 291 289 287 284 281 279 277 274 272 269 264 261 259 257 253 248 245 245 244
235 221 202 182 166 153 143 138 135 131 127 125 125 122 119 119 119 120 122 123 121 120 123 125 127 128 127 124 121 114 102 86 60 45 48 53 46 11 298 299 329 342 313 303 320 331 332 329 325 321 317 314 312 312 311 310 308 307 305 303 302 301 299 296 294 293 291 290 288 285 283 282 280 276 273 270 266 264 261 258 254 249 245 242 241
206 181 172 162 148 140 137 137 134 129 125 125 126 126 127 131 132 131 134 135 132 131 134 139 144 145 139 135 132 117 95 81 64 52 54 56 32 337 305 319 349 351 334 332 335 332 329 327 323 319 318 316 315 314 313 311 310 308 306 305 304 302 299 296 295 295 294 292 289 285 282 281 279 276 273 270 267 264 260 258 257 254 249 243 239
160 150 144 140 136 133 133 132 129 125 125 128 134 139 144 146 144 143 143 144 146 150 152 152 155 156 155 153 140 109 100 122 114 59 308 296 299 293 304 332 350 347 337 337 336 331 329 328 325 323 321 318 318 317 315 314 312 310 308 306 303 300 298 297 297 296 295 293 292 290 286 282 280 277 274 271 269 266 260 257 256 254 250 245 239
133 130 129 130 131 129 129 130 130 129 131 133 138 143 144 143 143 146 149 156 165 165 159 158 165 170 171 170 159 134 181 230 241 246 255 265 272 286 317 340 348 344 339 337 334 331 330 328 327 326 323 322 322 321 318 317 315 312 310 307 304 301 300 300 299 297 295 295 295 295 292 287 283 279 275 271 269 266 261 258 255 251 246 241 235
118 121 125 126 127 127 130 133 134 133 132 131 135 142 147 151 156 158 157 165 173 168 161 170 183 178 165 167 180 198 212 223 230 239 261 302 329 336 339 342 342 339 337 334 332 332 331 329 329 328 325 325 326 324 321 319 316 313 312 309 306 304 303 302 300 299 297 295 297 299 297 291 285 282 279 276 272 269 265 261 254 247 240 234 230
113 117 120 121 124 128 132 136 139 141 142 142 149 158 160 158 157 156 156 165 174 171 168 172 161 132 133 152 184 227 243 244 242 254 309 342 348 345 343 341 338 337 336 333 333 334 333 332 331 329 326 328 329 327 324 322 320 319 316 313 309 306 304 302 301 300 299 298 299 300 298 292 288 286 283 279 276 274 269 261 251 241 235 230 229
112 114 117 121 127 134 140 145 150 154 153 149 149 151 149 145 147 151 158 166 170 168 163 141 110 110 139 172 195 228 271 305 329 343 346 344 341 343 344 339 335 336 336 334 334 334 334 333 332 330 329 328 328 327 327 326 327 325 322 317 313 310 307 305 303 302 301 301 301 300 297 294 292 290 286 282 282 278 270 258 247 239 232 228 228
113 118 125 131 133 136 139 141 142 142 140 136 132 132 136 142 146 150 158 161 158 157 155 121 100 106 168 213 202 206 249 307 333 337 338 337 336 338 339 336 336 338 338 336 335 336 336 334 332 330 329 328 328 329 332 333 333 331 326 320 317 313 310 308 305 304 304 305 303 302 300 299 297 294 290 289 287 277 261 247 238 232 227 224 223
115 119 125 129 128 124 122 118 115 114 113 111 112 121 135 142 140 138 139 132 121 124 138 111 98 103 135 254 221 221 258 304 327 331 334 335 330 332 336 337 337 338 338 338 338 339 338 335 333 331 330 329 328 329 334 338 340 338 333 327 320 315 311 309 308 308 309 309 308 306 305 304 303 300 299 299 292 272 249 241 236 230 226 222 217
111 113 114 114 111 107 101 95 93 94 94 93 92 99 112 118 115 108 103 97 88 81 72 65 75 96 95 56 57 291 295 323 341 344 340 335 329 332 337 337 335 336 340 341 341 341 339 337 334 332 331 330 328 329 334 340 342 340 337 334 327 321 316 313 312 314 315 314 313 311 309 308 309 308 308 307 299 273 248 243 236 225 217 211 202
106 107 106 105 102 96 90 89 92 94 96 96 92 86 86 88 87 85 86 83 77 72 67 56 43 45 59 58 53 37 4 344 337 332 331 330 330 333 337 336 334 335 340 342 342 342 341 339 336 334 334 332 329 330 336 340 341 339 338 336 332 328 324 321 321 324 324 322 319 315 313 314 315 316 316 314 305 282 258 244 225 208 198 193 188
91 92 92 93 94 91 89 90 91 89 88 90 89 85 83 82 80 78 75 70 65 60 54 51 52 48 42 42 38 19 352 330 323 325 329 331 330 329 331 332 331 335 342 345 344 344 343 340 338 337 336 334 332 335 338 340 341 341 341 339 338 337 336 335 335 337 336 332 328 324 322 323 326 326 325 322 313 289 268 239 203 193 186 171 161
76 79 80 82 85 86 85 86 86 84 82 80 79 78 78 76 77 77 71 65 61 55 42 38 45 46 42 41 29 355 331 326 330 332 332 332 329 327 327 330 331 337 344 347 347 347 345 342 340 340 339 337 337 342 346 346 346 346 345 345 346 348 349 348 348 347 344 340 338 333 330 334 342 345 339 336 333 310 247 176 156 153 149 142 138
70 72 75 78 81 83 85 85 85 84 81 78 76 75 74 73 73 73 69 64 61 56 46 41 38 37 39 41 30 4 338 337 338 334 334 341 340 334 331 330 331 337 344 349 351 350 347 343 343 345 344 341 342 347 350 351 351 350 349 350 353 356 356 358 359 356 352 352 355 352 348 352 2 4 1 3 13 28 99 132 132 128 127 129 128
72 73 73 75 76 77 79 80 81 80 80 79 76 73 71 70 69 67 65 65 61 52 45 42 39 36 35 30 22 10 357 352 350 341 338 341 341 336 332 331 332 338 345 350 352 352 348 346 347 349 348 347 348 351 352 352 353 353 353 356 359 0 1 5 9 6 2 6 14 15 16 23 28 25 26 43 66 77 93 110 119 120 120 122 124
72 74 75 75 75 76 76 76 76 75 75 75 75 73 72 71 70 64 60 59 55 48 41 38 33 29 25 18 10 1 357 359 358 349 342 340 337 336 335 333 332 336 343 350 354 354 350 347 350 353 353 353 353 353 353 354 355 356 357 1 6 7 7 11 16 16 16 21 26 26 28 39 46 45 47 59 76 85 91 99 106 110 112 115 119
65 70 74 76 76 76 75 74 74 74 72 71 72 73 71 69 67 63 58 55 52 45 39 35 29 23 16 9 2 356 356 360 354 348 346 345 341 339 337 333 332 336 343 349 354 356 352 350 353 355 355 355 356 355 355 357 360 1 2 6 12 14 14 15 19 21 24 30 35 36 38 45 52 54 55 61 71 80 86 92 97 101 105 109 115